User: anonymous   Login
Location: Hickory_CSC
(35.7330°N, 81.3330°W)
Time: 05:24:25
(UTC-04:00)
Language:

Cosmos 1356 Rocket - Orbit

View from above orbital plane
View from above orbital plane
View from above satellite
View from above satellite

Ground track
Ground track

The orbit data is extracted from the following two-line orbital elements,

1 13154U 82039B   16178.84512611  .00000228  00000-0  17161-4 0  9999
2 13154  81.1849 271.5528 0040596   9.9609 350.2405 14.98072689850538
Epoch (UTC): 26 June 2016 20:16:58
Eccentricity: 0.0040596
inclination: 81.1849°
perigee height: 544 km
apogee height: 601 km
right ascension of ascending node: 271.5528°
argument of perigee: 9.9609°
revolutions per day: 14.98072689
mean anomaly at epoch: 350.2405°
orbit number at epoch: 85053

The dashed part of the orbit path shows where the satellite is in the earth's shadow,  

DLR